Location: Big Prairie
(40.6673°N, 82.0952°W)
Time: 03:21:53
(UTC+00:00)

Meteor 1-26 Rocket - Pass Details

Date: 07 July 2022
Orbit: 810 x 924 km, 81.3° (Epoch: 13 August)

Event Time Altitude Azimuth Distance (km) Brightness Sun altitude
Rises 07:07:14 0° 339° (NNW) 3,511 8.1 -23.1°
Reaches altitude 10° 07:09:57 10° 329° (NNW) 2,583 7.1 -22.9°
Maximum altitude 07:14:58 30° 271° (W) 1,581 5.4 -22.5°
Enters shadow 07:15:39 29° 258° (WSW) 1,607 5.3 -22.4°
